Location: Hilton Head Island
(32.2163°N, 80.7526°W)
Time: 21:12:18
(UTC-04:00)

Vanguard 2 Rocket - Pass Details

Date: 22 February 2026
Orbit: 553 x 3286 km, 32.9° (Epoch: 10 March)

Event Time Altitude Azimuth Distance (km) Brightness Sun altitude
Rises 14:55:46 0° 277° (W) 7,201 11.9 36.3°
Reaches altitude 10° 15:00:53 10° 278° (W) 6,026 11.7 35.5°
Maximum altitude 15:18:58 88° 192° (SSW) 2,275 9.5 32.7°
Drops below altitude 10° 15:29:30 10° 103° (ESE) 3,742 9.8 31.0°
Sets 15:31:56 0° 103° (ESE) 4,440 10.1 30.6°
